Find Starlink 31539

NORAD ID: 59539 Int'l Des: 2024-074 Owner: SPXS Country: US Constellation: starlink operational
LEOCIRCULAR

Live Position

Loading 3D Globe...

About Starlink 31539

Description loading...

Upcoming Passes

Passes for default location (London). Set your location on the main map for personalized predictions.

Altitude History

Loading altitude history...

Two-Line Element Set

1 59539U 24074F 26109.29614431 .00000648 00000-0 33069-4 0 9999
2 59539 43.0015 114.2759 0001286 272.3628 87.7077 15.27580351112223
Epoch: Apr 19, 2026 • Age: 20 hours

Current Status

Altitude 489.5 km
Velocity 7.62 km/s
Sub-Earth Point -27.62°S, 177.54°E
Launch Date Apr 18, 2024
Age 2 years
Type internet

Technical Details

Classification Payload
Mass 730.00 kg
Dry Mass 700.00 kg
Total Mass 730.00 kg
Length 0.30 m
Diameter 4.10 m
Span 29.00 m
Shape Box + pan
Manufacturer SPXS
Bus Type Starlink V2M
Phase Status In Orbit
Owner/State SPXS/US

Most Searched